When you browse on this site, cookies collect data to enhance your experience and personalize the content and advertising you see.
Visit our Privacy Policy to learn more. By continuing to use the site, you agree to this use of cookies and data.
  • In Hungary
  • List of Countries
  • For 7 days
  • Water Temperature
  • Weather Map
  • News
  • Weather Widgets
  • user-avatar
    Login

    Hourly Weather Monteria

    Today, 22 November, Friday

    Time Temperature Precipitation Wind Pressure Humidity
    00:00 +25°C° 0.1 mm 1 mps 756 mmHg 93%
    01:00 +25°C° 0.1 mm 1 mps 756 mmHg 94%
    02:00 +25°C° 0.2 mm 1 mps 755 mmHg 94%
    03:00 +25°C° 0.2 mm 1 mps 755 mmHg 94%
    04:00 +25°C° 0.2 mm 1 mps 755 mmHg 95%
    05:00 +25°C° 0 mm 1 mps 756 mmHg 94%
    06:00 +26°C° 0 mm 1 mps 756 mmHg 93%
    07:00 +26°C° 0 mm 1 mps 757 mmHg 92%
    08:00 +27°C° 0.2 mm 1 mps 757 mmHg 87%
    09:00 +29°C° 0.2 mm 1 mps 757 mmHg 82%
    10:00 +30°C° 0.2 mm 1 mps 757 mmHg 77%
    11:00 +31°C° 0.1 mm 1 mps 756 mmHg 75%
    12:00 +31°C° 0.1 mm 2 mps 755 mmHg 73%
    13:00 +32°C° 0.1 mm 2 mps 755 mmHg 71%
    14:00 +31°C° 0.3 mm 3 mps 754 mmHg 75%
    15:00 +30°C° 0.3 mm 4 mps 753 mmHg 79%
    16:00 +30°C° 0.3 mm 4 mps 753 mmHg 82%
    17:00 +29°C° 0 mm 4 mps 754 mmHg 85%
    18:00 +27°C° 0 mm 3 mps 754 mmHg 88%
    19:00 +26°C° 0 mm 3 mps 755 mmHg 90%
    20:00 +26°C° 0.2 mm 2 mps 755 mmHg 91%
    21:00 +26°C° 0.2 mm 2 mps 756 mmHg 92%
    22:00 +26°C° 0.2 mm 2 mps 756 mmHg 92%
    23:00 +25°C° 0.9 mm 2 mps 756 mmHg 93%

    Tomorrow, 23 November, Saturday

    Time Temperature Precipitation Wind Pressure Humidity
    00:00 +25°C° 0.9 mm 2 mps 756 mmHg 94%
    01:00 +25°C° 0.9 mm 2 mps 755 mmHg 95%
    02:00 +25°C° 0.1 mm 2 mps 755 mmHg 95%
    03:00 +25°C° 0.1 mm 2 mps 755 mmHg 94%
    04:00 +25°C° 0.1 mm 2 mps 755 mmHg 94%
    05:00 +25°C° 0 mm 2 mps 755 mmHg 94%
    06:00 +25°C° 0 mm 2 mps 756 mmHg 93%
    07:00 +26°C° 0 mm 2 mps 756 mmHg 93%
    08:00 +27°C° 0.2 mm 3 mps 757 mmHg 89%
    09:00 +29°C° 0.2 mm 3 mps 757 mmHg 84%
    10:00 +30°C° 0.2 mm 3 mps 757 mmHg 80%
    11:00 +30°C° 0.2 mm 3 mps 756 mmHg 78%
    12:00 +31°C° 0.2 mm 3 mps 756 mmHg 76%
    13:00 +31°C° 0.2 mm 3 mps 755 mmHg 74%
    14:00 +31°C° 0.2 mm 3 mps 754 mmHg 76%
    15:00 +30°C° 0.2 mm 4 mps 754 mmHg 79%
    16:00 +30°C° 0.2 mm 4 mps 753 mmHg 82%
    17:00 +29°C° 0 mm 3 mps 754 mmHg 84%
    18:00 +28°C° 0 mm 3 mps 754 mmHg 86%
    19:00 +26°C° 0 mm 2 mps 755 mmHg 88%
    20:00 +26°C° 0.2 mm 2 mps 755 mmHg 89%
    21:00 +26°C° 0.2 mm 2 mps 756 mmHg 90%
    22:00 +26°C° 0.2 mm 1 mps 756 mmHg 92%
    23:00 +25°C° 0.3 mm 1 mps 756 mmHg 92%

    Day after tomorrow, 24 November, Sunday

    Time Temperature Precipitation Wind Pressure Humidity
    00:00 +25°C° 0.3 mm 2 mps 756 mmHg 93%
    01:00 +25°C° 0.3 mm 2 mps 755 mmHg 94%
    02:00 +25°C° 0 mm 2 mps 755 mmHg 94%
    03:00 +25°C° 0 mm 2 mps 755 mmHg 94%
    04:00 +25°C° 0 mm 2 mps 755 mmHg 94%
    05:00 +25°C° 0 mm 2 mps 755 mmHg 94%
    06:00 +25°C° 0 mm 2 mps 756 mmHg 93%
    07:00 +26°C° 0 mm 2 mps 756 mmHg 93%
    08:00 +27°C° 0.1 mm 2 mps 756 mmHg 88%
    09:00 +29°C° 0.1 mm 2 mps 756 mmHg 83%
    10:00 +30°C° 0.1 mm 2 mps 756 mmHg 78%
    11:00 +30°C° 0.5 mm 2 mps 755 mmHg 77%
    12:00 +31°C° 0.5 mm 2 mps 755 mmHg 75%
    13:00 +31°C° 0.5 mm 2 mps 754 mmHg 73%
    14:00 +31°C° 0.2 mm 2 mps 753 mmHg 76%
    15:00 +31°C° 0.2 mm 3 mps 753 mmHg 78%
    16:00 +30°C° 0.2 mm 3 mps 752 mmHg 80%
    17:00 +29°C° 0 mm 3 mps 753 mmHg 84%
    18:00 +28°C° 0 mm 2 mps 753 mmHg 88%
    19:00 +26°C° 0 mm 2 mps 753 mmHg 91%
    20:00 +26°C° 0 mm 2 mps 754 mmHg 91%
    21:00 +26°C° 0 mm 1 mps 754 mmHg 91%
    22:00 +26°C° 0 mm 1 mps 755 mmHg 91%
    23:00 +25°C° 0 mm 1 mps 755 mmHg 92%

    25 November, Monday

    Time Temperature Precipitation Wind Pressure Humidity
    00:00 +25°C° 0 mm 1 mps 754 mmHg 93%
    01:00 +25°C° 0 mm 1 mps 754 mmHg 94%
    02:00 +25°C° 0.2 mm 1 mps 754 mmHg 94%
    03:00 +25°C° 0.2 mm 1 mps 754 mmHg 95%
    04:00 +25°C° 0.2 mm 1 mps 753 mmHg 95%
    05:00 +25°C° 0.1 mm 1 mps 754 mmHg 94%
    06:00 +26°C° 0.1 mm 1 mps 754 mmHg 94%
    07:00 +26°C° 0.1 mm 1 mps 754 mmHg 93%
    08:00 +27°C° 0.3 mm 1 mps 755 mmHg 89%
    09:00 +29°C° 0.3 mm 1 mps 755 mmHg 84%
    10:00 +30°C° 0.3 mm 2 mps 755 mmHg 79%
    11:00 +30°C° 0.8 mm 2 mps 754 mmHg 78%
    12:00 +31°C° 0.8 mm 2 mps 753 mmHg 76%
    13:00 +31°C° 0.8 mm 2 mps 752 mmHg 75%
    14:00 +31°C° 0.4 mm 2 mps 752 mmHg 77%
    15:00 +31°C° 0.4 mm 2 mps 751 mmHg 78%
    16:00 +30°C° 0.4 mm 3 mps 751 mmHg 80%
    17:00 +29°C° 0.4 mm 3 mps 751 mmHg 85%
    18:00 +28°C° 0.4 mm 2 mps 752 mmHg 89%
    19:00 +27°C° 0.4 mm 2 mps 752 mmHg 93%
    20:00 +26°C° 0.1 mm 2 mps 753 mmHg 93%
    21:00 +26°C° 0.1 mm 1 mps 753 mmHg 93%
    22:00 +26°C° 0.1 mm 1 mps 754 mmHg 93%
    23:00 +26°C° 0.3 mm 1 mps 754 mmHg 93%

    26 November, Tuesday

    Time Temperature Precipitation Wind Pressure Humidity
    00:00 +26°C° 0.3 mm 1 mps 753 mmHg 93%
    01:00 +26°C° 0.3 mm 1 mps 753 mmHg 94%
    02:00 +26°C° 0.2 mm 1 mps 753 mmHg 94%
    03:00 +26°C° 0.2 mm 1 mps 753 mmHg 94%
    04:00 +25°C° 0.2 mm 1 mps 753 mmHg 94%
    05:00 +26°C° 0 mm 1 mps 753 mmHg 94%
    06:00 +26°C° 0 mm 2 mps 754 mmHg 94%
    07:00 +26°C° 0 mm 2 mps 754 mmHg 94%
    08:00 +28°C° 0 mm 2 mps 754 mmHg 88%
    09:00 +29°C° 0 mm 2 mps 754 mmHg 82%
    10:00 +31°C° 0 mm 2 mps 755 mmHg 77%
    11:00 +31°C° 0 mm 2 mps 754 mmHg 74%
    12:00 +32°C° 0 mm 1 mps 753 mmHg 72%
    13:00 +32°C° 0 mm 1 mps 752 mmHg 69%
    14:00 +32°C° 0.1 mm 1 mps 752 mmHg 71%
    15:00 +32°C° 0.1 mm 2 mps 752 mmHg 73%
    16:00 +32°C° 0.1 mm 2 mps 751 mmHg 75%
    17:00 +30°C° 0.4 mm 2 mps 752 mmHg 81%
    18:00 +29°C° 0.4 mm 2 mps 752 mmHg 86%
    19:00 +27°C° 0.4 mm 2 mps 753 mmHg 91%
    20:00 +27°C° 0 mm 2 mps 753 mmHg 92%
    21:00 +27°C° 0 mm 2 mps 753 mmHg 92%
    22:00 +26°C° 0 mm 1 mps 754 mmHg 92%
    23:00 +26°C° 0.1 mm 1 mps 754 mmHg 92%

    27 November, Wednesday

    Time Temperature Precipitation Wind Pressure Humidity
    00:00 +26°C° 0.1 mm 1 mps 753 mmHg 93%
    01:00 +26°C° 0.1 mm 1 mps 753 mmHg 93%
    02:00 +26°C° 0 mm 1 mps 753 mmHg 93%
    03:00 +26°C° 0 mm 2 mps 753 mmHg 94%
    04:00 +26°C° 0 mm 2 mps 752 mmHg 94%
    05:00 +26°C° 0 mm 2 mps 753 mmHg 93%
    06:00 +26°C° 0 mm 1 mps 753 mmHg 92%
    07:00 +27°C° 0 mm 1 mps 754 mmHg 92%
    08:00 +28°C° 0 mm 1 mps 754 mmHg 86%
    09:00 +29°C° 0 mm 2 mps 754 mmHg 81%
    10:00 +31°C° 0 mm 2 mps 755 mmHg 76%
    11:00 +31°C° 0 mm 1 mps 754 mmHg 73%
    12:00 +32°C° 0 mm 1 mps 753 mmHg 70%
    13:00 +31°C° 0 mm 0 mps 752 mmHg 67%
    14:00 +33°C° 0 mm 1 mps 752 mmHg 70%
    15:00 +32°C° 0 mm 2 mps 752 mmHg 73%
    16:00 +32°C° 0 mm 2 mps 751 mmHg 75%
    17:00 +30°C° 0 mm 2 mps 752 mmHg 81%
    18:00 +29°C° 0 mm 2 mps 752 mmHg 86%
    19:00 +27°C° 0 mm 2 mps 753 mmHg 91%
    20:00 +27°C° 0.2 mm 2 mps 753 mmHg 91%
    21:00 +27°C° 0.2 mm 2 mps 753 mmHg 92%
    22:00 +27°C° 0.2 mm 2 mps 754 mmHg 93%
    23:00 +27°C° 0.4 mm 2 mps 754 mmHg 93%
    Show more